Vacaville, CA

7:41 PM PST on November 20, 2017 (GMT -0800)
Nut Tree

Weather History for KVCB - December, 2011

Change the Weather History Date:

Sunday, December 25, 2011

  Actual Average Record
Temperature  
Mean Temperature 41 °F -  
Max Temperature 55 °F 52 °F 71 °F (1972)
Min Temperature 27 °F 35 °F 23 °F (1990)
Degree Days  
Heating Degree Days 24    
Moisture  
Dew Point 28 °F    
Average Humidity 74    
Maximum Humidity 92    
Minimum Humidity 42    
Precipitation  
Precipitation 0.00 in - - ()
Sea Level Pressure  
Sea Level Pressure 30.40 in    
Wind  
Wind Speed 0 mph (ENE)    
Max Wind Speed 4 mph    
Max Gust Speed -    
Visibility 6 miles    
Events      
Averages and records for this station are not official NWS values.
T = Trace of Precipitation, MM = Missing Value Source: NWS Daily Summary

Daily Weather History Graph

Daily Weather History Graph

Search for Another Location

Airport or City:

Trip Planner

Search our weather history database for the weather conditions in past years. The results will help you decide how hot, cold, wet, or windy it might be!

Date:

Astronomy

Dec. 25, 2011 Rise Set
Actual Time 7:23 AM PST 4:52 PM PST
Civil Twilight 6:53 AM PST 5:22 PM PST
Nautical Twilight 6:20 AM PST 5:55 PM PST
Astronomical Twilight 5:47 AM PST 6:28 PM PST
Moon 8:05 AM PST (12/25) 6:18 PM PST (12/25)
Length of Visible Light 10h 29m
Length of Day
9h 29m
New Moon, 2% of the Moon is Illuminated
Dec 25
New Moon
Dec 31
First Quarter
Jan 8
Full
Jan 16
Last Quarter
Jan 22
New

Hourly Weather History & Observations

Time (PST) Temp. Windchill Dew Point Humidity Pressure Visibility Wind Dir Wind Speed Gust Speed Precip Events Conditions
12:53 AM 27.0 °F - 23.0 °F 85% 30.44 in 6.0 mi Calm Calm - N/A   Clear
1:53 AM 30.0 °F - 25.0 °F 82% 30.45 in 7.0 mi Calm Calm - N/A   Clear
2:53 AM 28.9 °F - 25.0 °F 85% 30.45 in 7.0 mi Calm Calm - N/A   Clear
3:53 AM 27.0 °F - 24.1 °F 89% 30.44 in 6.0 mi Calm Calm - N/A   Clear
4:53 AM 27.0 °F - 25.0 °F 92% 30.44 in 6.0 mi Calm Calm - N/A   Clear
5:53 AM 28.9 °F - 25.0 °F 85% 30.45 in 6.0 mi Calm Calm - N/A   Clear
6:53 AM 27.0 °F - 24.1 °F 89% 30.46 in 9.0 mi Calm Calm - 0.00 in   Clear
7:53 AM 30.0 °F - 27.0 °F 88% 30.45 in 7.0 mi Calm Calm - N/A   Clear
9:53 AM 43.0 °F - 30.9 °F 62% 30.48 in 9.0 mi Calm Calm - N/A   Clear
10:53 AM 48.0 °F - 30.0 °F 50% 30.47 in 10.0 mi NNE 3.5 mph - N/A   Clear
11:53 AM 51.1 °F - 30.0 °F 44% 30.43 in 9.0 mi Calm Calm - N/A   Clear
1:53 PM 55.0 °F - 32.0 °F 42% 30.36 in 6.0 mi Calm Calm - N/A   Haze
2:53 PM 55.0 °F - 32.0 °F 42% 30.36 in 6.0 mi Calm Calm - N/A   Haze
3:53 PM 55.0 °F - 33.1 °F 43% 30.35 in 6.0 mi East 3.5 mph - N/A   Haze
4:53 PM 45.0 °F - 32.0 °F 60% 30.34 in 5.0 mi Calm Calm - N/A   Haze
5:53 PM 37.9 °F - 30.9 °F 76% 30.35 in 5.0 mi Calm Calm - N/A   Haze
6:53 PM 35.1 °F - 30.9 °F 85% 30.36 in 5.0 mi Calm Calm - N/A   Clear
7:53 PM 34.0 °F - 30.0 °F 85% 30.35 in 5.0 mi Calm Calm - N/A   Clear
8:53 PM 30.9 °F - 28.0 °F 89% 30.35 in 4.0 mi Calm Calm - N/A   Clear
9:53 PM 32.0 °F - 28.9 °F 88% 30.35 in 5.0 mi Calm Calm - N/A   Clear
10:53 PM 33.1 °F 30.0 °F 28.9 °F 85% 30.34 in 6.0 mi SW 3.5 mph - N/A   Clear
11:53 PM 30.0 °F - 28.0 °F 92% 30.32 in 6.0 mi Calm Calm - N/A   Clear